• In Hungary
  • List of Countries
  • For 7 days
  • Water Temperature
  • Satellite Maps
  • Weather Map
  • News
  • Weather Widgets
  • user-avatar
    Login

    Hourly Weather Vysocany

    Today, 18 October, Wednesday

    Time Temperature Precipitation Wind Pressure Humidity
    00:00 +13°C° 0 mm 1 mps 742 mmHg 84%
    01:00 +13°C° 0 mm 1 mps 741 mmHg 87%
    02:00 +12°C° 0 mm 1 mps 741 mmHg 88%
    03:00 +12°C° 0 mm 1 mps 741 mmHg 89%
    04:00 +12°C° 0 mm 1 mps 740 mmHg 90%
    05:00 +11°C° 0 mm 1 mps 740 mmHg 91%
    06:00 +11°C° 0 mm 1 mps 740 mmHg 91%
    07:00 +11°C° 0 mm 1 mps 740 mmHg 92%
    08:00 +13°C° 0 mm 1 mps 740 mmHg 86%
    09:00 +14°C° 0 mm 1 mps 740 mmHg 80%
    10:00 +16°C° 0 mm 1 mps 740 mmHg 74%
    11:00 +18°C° 0 mm 1 mps 739 mmHg 69%
    12:00 +19°C° 0 mm 1 mps 739 mmHg 65%
    13:00 +20°C° 0 mm 1 mps 739 mmHg 61%
    14:00 +20°C° 0 mm 1 mps 739 mmHg 64%
    15:00 +19°C° 0 mm 1 mps 738 mmHg 66%
    16:00 +19°C° 0 mm 1 mps 738 mmHg 69%
    17:00 +16°C° 0 mm 0 mps 738 mmHg 73%
    18:00 +14°C° 0 mm 0 mps 738 mmHg 78%
    19:00 +13°C° 0 mm 0 mps 738 mmHg 83%
    20:00 +13°C° 0 mm 0 mps 738 mmHg 84%
    21:00 +12°C° 0 mm 0 mps 738 mmHg 85%
    22:00 +12°C° 0 mm 0 mps 738 mmHg 86%
    23:00 +13°C° 0 mm 1 mps 738 mmHg 87%

    Tomorrow, 19 October, Thursday

    Time Temperature Precipitation Wind Pressure Humidity
    00:00 +12°C° 0 mm 1 mps 738 mmHg 88%
    01:00 +12°C° 0 mm 1 mps 739 mmHg 88%
    02:00 +12°C° 0 mm 1 mps 738 mmHg 88%
    03:00 +11°C° 0 mm 1 mps 738 mmHg 89%
    04:00 +11°C° 0 mm 1 mps 738 mmHg 89%
    05:00 +11°C° 0 mm 1 mps 739 mmHg 88%
    06:00 +11°C° 0 mm 1 mps 739 mmHg 88%
    07:00 +11°C° 0 mm 1 mps 739 mmHg 88%
    08:00 +13°C° 0 mm 1 mps 739 mmHg 80%
    09:00 +15°C° 0 mm 1 mps 739 mmHg 73%
    10:00 +16°C° 0 mm 1 mps 739 mmHg 65%
    11:00 +19°C° 0 mm 1 mps 739 mmHg 60%
    12:00 +20°C° 0 mm 1 mps 739 mmHg 56%
    13:00 +21°C° 0 mm 1 mps 739 mmHg 51%
    14:00 +21°C° 0 mm 1 mps 739 mmHg 54%
    15:00 +18°C° 0 mm 0 mps 739 mmHg 57%
    16:00 +18°C° 0 mm 0 mps 739 mmHg 59%
    17:00 +16°C° 0 mm 0 mps 739 mmHg 63%
    18:00 +15°C° 0 mm 0 mps 739 mmHg 68%
    19:00 +13°C° 0 mm 0 mps 739 mmHg 72%
    20:00 +14°C° 0 mm 1 mps 739 mmHg 74%
    21:00 +14°C° 0 mm 1 mps 739 mmHg 75%
    22:00 +13°C° 0 mm 1 mps 739 mmHg 77%
    23:00 +13°C° 0 mm 1 mps 739 mmHg 79%

    Day after tomorrow, 20 October, Friday

    Time Temperature Precipitation Wind Pressure Humidity
    00:00 +12°C° 0 mm 1 mps 739 mmHg 80%
    01:00 +12°C° 0 mm 1 mps 739 mmHg 82%
    02:00 +12°C° 0 mm 1 mps 739 mmHg 83%
    03:00 +11°C° 0 mm 1 mps 739 mmHg 84%
    04:00 +11°C° 0 mm 1 mps 739 mmHg 85%
    05:00 +11°C° 0 mm 1 mps 739 mmHg 85%
    06:00 +11°C° 0 mm 1 mps 740 mmHg 86%
    07:00 +11°C° 0 mm 1 mps 740 mmHg 86%
    08:00 +13°C° 0 mm 1 mps 740 mmHg 79%
    09:00 +15°C° 0 mm 1 mps 740 mmHg 72%
    10:00 +16°C° 0 mm 1 mps 740 mmHg 64%
    11:00 +19°C° 0 mm 1 mps 740 mmHg 60%
    12:00 +19°C° 0 mm 2 mps 740 mmHg 56%
    13:00 +20°C° 0 mm 2 mps 740 mmHg 52%
    14:00 +19°C° 0 mm 2 mps 740 mmHg 56%
    15:00 +20°C° 0 mm 1 mps 740 mmHg 59%
    16:00 +20°C° 0 mm 1 mps 740 mmHg 62%
    17:00 +18°C° 0 mm 1 mps 740 mmHg 67%
    18:00 +16°C° 0 mm 1 mps 740 mmHg 71%
    19:00 +14°C° 0 mm 1 mps 741 mmHg 76%
    20:00 +14°C° 0 mm 1 mps 741 mmHg 78%
    21:00 +13°C° 0 mm 1 mps 741 mmHg 80%
    22:00 +13°C° 0 mm 1 mps 741 mmHg 82%
    23:00 +12°C° 0 mm 1 mps 741 mmHg 83%

    21 October, Saturday

    Time Temperature Precipitation Wind Pressure Humidity
    00:00 +12°C° 0 mm 1 mps 741 mmHg 85%
    01:00 +12°C° 0 mm 1 mps 741 mmHg 86%
    02:00 +11°C° 0 mm 1 mps 741 mmHg 87%
    03:00 +11°C° 0 mm 1 mps 741 mmHg 87%
    04:00 +11°C° 0 mm 1 mps 741 mmHg 88%
    05:00 +11°C° 0 mm 1 mps 741 mmHg 88%
    06:00 +11°C° 0 mm 1 mps 741 mmHg 89%
    07:00 +11°C° 0 mm 1 mps 741 mmHg 89%
    08:00 +12°C° 0 mm 1 mps 741 mmHg 83%
    09:00 +14°C° 0 mm 1 mps 742 mmHg 76%
    10:00 +16°C° 0 mm 1 mps 742 mmHg 69%
    11:00 +18°C° 0 mm 1 mps 741 mmHg 66%
    12:00 +19°C° 0 mm 1 mps 741 mmHg 62%
    13:00 +20°C° 0 mm 1 mps 741 mmHg 58%
    14:00 +20°C° 0 mm 1 mps 741 mmHg 60%
    15:00 +20°C° 0 mm 1 mps 740 mmHg 63%
    16:00 +19°C° 0 mm 1 mps 740 mmHg 66%
    17:00 +18°C° 0 mm 1 mps 740 mmHg 69%
    18:00 +16°C° 0 mm 1 mps 740 mmHg 72%
    19:00 +15°C° 0 mm 1 mps 740 mmHg 75%
    20:00 +15°C° 0 mm 1 mps 740 mmHg 76%
    21:00 +14°C° 0 mm 1 mps 740 mmHg 78%
    22:00 +14°C° 0 mm 1 mps 740 mmHg 80%
    23:00 +14°C° 0 mm 1 mps 740 mmHg 80%

    22 October, Sunday

    Time Temperature Precipitation Wind Pressure Humidity
    00:00 +14°C° 0 mm 1 mps 740 mmHg 80%
    01:00 +14°C° 0 mm 1 mps 740 mmHg 80%
    02:00 +13°C° 0.1 mm 1 mps 740 mmHg 81%
    03:00 +13°C° 0.1 mm 1 mps 739 mmHg 82%
    04:00 +13°C° 0.1 mm 1 mps 739 mmHg 83%
    05:00 +13°C° 0.4 mm 1 mps 739 mmHg 85%
    06:00 +13°C° 0.4 mm 2 mps 739 mmHg 87%
    07:00 +13°C° 0.4 mm 2 mps 740 mmHg 89%
    08:00 +13°C° 1.2 mm 2 mps 740 mmHg 89%
    09:00 +12°C° 1.2 mm 3 mps 740 mmHg 88%
    10:00 +12°C° 1.2 mm 3 mps 740 mmHg 88%
    11:00 +11°C° 0.5 mm 3 mps 740 mmHg 87%
    12:00 +11°C° 0.5 mm 3 mps 740 mmHg 85%
    13:00 +11°C° 0.5 mm 3 mps 740 mmHg 83%
    14:00 +11°C° 0.1 mm 3 mps 740 mmHg 83%
    15:00 +12°C° 0.1 mm 2 mps 740 mmHg 82%
    16:00 +12°C° 0.1 mm 2 mps 740 mmHg 81%
    17:00 +12°C° 0 mm 2 mps 740 mmHg 82%
    18:00 +10°C° 0 mm 2 mps 740 mmHg 82%
    19:00 +10°C° 0 mm 2 mps 740 mmHg 83%
    20:00 +10°C° 0.1 mm 2 mps 740 mmHg 84%
    21:00 +9°C° 0.1 mm 2 mps 740 mmHg 84%
    22:00 +9°C° 0.1 mm 2 mps 740 mmHg 85%
    23:00 +9°C° 0.1 mm 2 mps 740 mmHg 86%

    23 October, Monday

    Time Temperature Precipitation Wind Pressure Humidity
    00:00 +8°C° 0.1 mm 2 mps 740 mmHg 86%
    01:00 +8°C° 0.1 mm 2 mps 741 mmHg 87%
    02:00 +8°C° 0.1 mm 2 mps 741 mmHg 87%
    03:00 +8°C° 0.1 mm 2 mps 741 mmHg 88%
    04:00 +8°C° 0.1 mm 2 mps 741 mmHg 88%
    05:00 +7°C° 0 mm 2 mps 741 mmHg 88%
    06:00 +7°C° 0 mm 3 mps 742 mmHg 88%
    07:00 +7°C° 0 mm 3 mps 742 mmHg 88%
    08:00 +8°C° 0 mm 3 mps 742 mmHg 85%
    09:00 +9°C° 0 mm 3 mps 743 mmHg 81%
    10:00 +8°C° 0 mm 4 mps 743 mmHg 78%
    11:00 +10°C° 0 mm 4 mps 743 mmHg 75%
    12:00 +10°C° 0 mm 4 mps 744 mmHg 72%
    13:00 +11°C° 0 mm 4 mps 744 mmHg 69%
    14:00 +11°C° 0 mm 3 mps 744 mmHg 69%
    15:00 +11°C° 0 mm 3 mps 744 mmHg 70%
    16:00 +10°C° 0 mm 2 mps 744 mmHg 71%
    17:00 +10°C° 0 mm 2 mps 745 mmHg 74%
    18:00 +9°C° 0 mm 2 mps 745 mmHg 77%
    19:00 +8°C° 0 mm 2 mps 745 mmHg 80%
    20:00 +8°C° 0 mm 2 mps 746 mmHg 81%
    21:00 +7°C° 0 mm 2 mps 746 mmHg 82%
    22:00 +7°C° 0 mm 2 mps 746 mmHg 84%
    23:00 +7°C° 0 mm 2 mps 746 mmHg 85%
    Show more